Location: Unspecified
(0.0000°N, 0.0000°E)
Time: 19:52:09
(UTC+00:00)

Vanguard 1 - Pass Details

Date: 19 June 2025
Orbit: 649 x 3822 km, 34.2° (Epoch: 12 July)

Event Time Altitude Azimuth Distance (km) Brightness Sun altitude
Exits shadow 05:32:37 - 231° (SW) 2,727 11.7 -6.6°
Reaches altitude 10° 05:33:16 10° 230° (SW) 2,483 11.5 -6.5°
Maximum altitude 05:39:01 82° 143° (SE) 1,181 10.5 -5.1°
Drops below altitude 10° 05:49:22 10° 55° (NE) 4,308 15.2 -2.8°
Sets 05:53:57 0° 55° (NE) 5,833 16.2 -1.7°
